Location: Unspecified
(0.0000°N, 0.0000°E)
Time: 11:24:13
(UTC+00:00)

Explorer 11/Cluster Stage 4 - Pass Details

Date: 02 November 2024
Orbit: 464 x 1202 km, 28.8° (Epoch: 06 December)

Event Time Altitude Azimuth Distance (km) Brightness Sun altitude
Exits shadow 04:34:55 12° 225° (SW) 1,624 7.9 -16.6°
Maximum altitude 04:38:25 49° 150° (SSE) 635 6.4 -15.7°
Drops below altitude 10° 04:41:55 10° 74° (ENE) 1,609 9.1 -14.9°
Sets 04:44:04 0° 69° (ENE) 2,470 10.1 -14.4°
